OBJECT C, 59775

Orbit data source: Space-Track

You're viewing an Uncataloged Satellite

Recently launched and/or uncataloged satellites may have evolving metadata. Metadata may include but not limited to: Owner, Maufacturer, Bus, Motor, and Mission.

OBJECT C, 59775 is a satellite owned by Sputniks (CIS) in SSO that was launched on Thu, 16 May 2024 UTC via a SOYUZ-2-1B launch vehicle from the Plesetsk Missile And Space Complex (PKMTR). Unknown objects in Earth's orbit typically refer to objects detected orbiting the Earth but have not yet been identified or cataloged. These objects could be anything from previously untracked satellites, spent rocket stages, debris from satellite collisions, or even natural meteoroids temporarily captured by Earth's gravity.

Loading next visibility...
Identifier
59775, 2024-092C
Orbit
SSO
Country
Flag of CISCIS
Related business
Manufacturer
Sputniks
Mission
Operational spacecraft
Bus & Motor
CUBESAT 12U, Unknown motor
Mass
20 kg wet, 20 kg dry
Launch date (UTC)
2024-05-16 (1 year ago)
Launch vehicle
SOYUZ-2-1B
Launch site
Plesetsk Missile And Space Complex (PKMTR)
Object type
Unknown
Shape & HBR
Unknown
Radar Cross Section
Medium (>0.1 m² and <1 m²)

Expand to show TLE details & history
Last TLE update: 7 hours ago

TLE from 7 hours ago
0 OBJECT C
1 59775U 24092C   25259.59214830  .00010193  00000-0  44842-3 0  9994
2 59775  97.6358  19.2476 0011195  66.7429 293.4984 15.22016579 73853
Epoch: 2025-09-16T14:12Z
TLE epoch observation values (Epoch: 2025-09-16T14:12:41.613Z)
Latitude
-0°
Longitude
170.29397°
Altitude
499.782 km
Speed
7.616 km/s
True Right ascension
01h 16m 59s
True Declination
0° 00' 00"
Sunlit
Object was in full shadow at epoch
Visualization orbit readout
Latitude
Unknown
Longitude
Unknown
Altitude
Unknown
Speed
Unknown
Apparent Right ascension
Unknown
Apparent Declination
Unknown
Sunlit
N/A
Visualization observer readout
Local Sidereal Time
14:02:54
Azimuth
Unknown
Elevation
Unknown
Doppler factor
Unknown
Orbital elements
Apogee altitude
504.428 km
Perigee altitude
489.035 km
Semi-major axis
6,874.869 km
Eccentricity
0.00112
Inclination
97.6358°
RAAN
19.2476°
Arg. of periapsis
66.7429°
True anomaly
293.38069°
Mean anomaly
293.4984°
Eccentric anomaly
293.43955°
Mean motion
3.80756 °/min
Orbital period
94.55 mins
BSTAR
0.00044842
Loading maneuver chart data...
Computing Atmospheric mass density...
Loading historical data...
Loading historical data...
Loading historical data...
Loading historical data...
Loading historical data...
Loading historical data...
Loading historical data...

Documentation

Showing up to 5 results
|